Home > Weather > Bayreuth > Past weeks

Flag for Germany Past Weather in Bayreuth, Bavaria, Germany — Yesterday and Last 2 Weeks

Now
57 °F

Fog.


Feels Like: 57 °F
Forecast: 58 / 73 °F
Wind: No wind

Location: Grafenwoehr

Current Time: Jul 28, 2016 at 3:03:30 AM

Latest Report: Jul 28, 2016 at 1:58 AM


Visibility: 5 mi

Pressure: 30.01 "Hg

Humidity: 100%

Dew Point: 57 °F

Location of BayreuthLocation

Past Weather in Bayreuth — Graph

°F

Bayreuth Temperature Yesterday

Maximum temperature yesterday: 77 °F (at 12:58 PM)
Minimum temperature yesterday: 60 °F (at 1:58 AM)
Average temperature yesterday: 68 °F

High & Low Weather Summary for the Past Weeks

 TemperatureHumidityPressure
High86 °F (Jul 20, 4:58 PM)100% (Jul 13, 3:58 AM)30.31 "Hg (Jul 13, 3:58 AM)
Low46 °F (Jul 15, 12:58 AM)32% (Jul 19, 3:58 PM)29.85 "Hg (Jul 13, 1:58 PM)
Average65 °F79%30.06 "Hg
* Reported Jul 13 1:58 AM — Jul 28 1:58 AM, Bayreuth, Weather by CustomWeather, © 2016

Note: Actual official high and low records may vary slightly from our data, if they occured in-between our weather recording intervals... More about our weather records

Advertising

Bayreuth Weather History for the Previous 24 Hours

Scroll right to see more
 ConditionsComfort  
Time TempWeatherWind HumidityBarometerVisibility
1:58 AM
Thu, Jul 28
57 °FFog.No wind100%30.01 "Hg5 mi
12:58 AM59 °FClear.No wind100%30.01 "HgN/A
11:58 PM
Wed, Jul 27
61 °FClear.No wind100%30.01 "HgN/A
10:58 PM63 °FClear.No wind94%30.01 "HgN/A
9:58 PM64 °FSunny.No wind88%30.01 "HgN/A
8:58 PM66 °FPassing clouds.No wind83%29.99 "HgN/A
7:58 PM70 °FBroken clouds.2 mph73%29.98 "HgN/A
6:58 PM73 °FScattered clouds.1 mph78%29.96 "HgN/A
5:58 PM73 °FScattered clouds.1 mph69%29.96 "HgN/A
5:04 PM72 °FScattered clouds.3 mph78%29.98 "Hg2 mi
4:58 PM72 °FBroken clouds.5 mph78%29.96 "Hg1 mi
3:58 PM70 °FScattered clouds.3 mph83%29.98 "HgN/A
2:58 PM72 °FThundershowers. Scattered clouds.9 mph78%29.97 "HgN/A
1:58 PM77 °FScattered clouds.9 mph61%29.96 "HgN/A
12:58 PM77 °FPartly sunny.7 mph65%29.98 "Hg1 mi
12:02 PM73 °FScattered clouds.5 mph74%30.05 "Hg2 mi
11:58 AM73 °FScattered clouds.3 mph74%30.01 "Hg2 mi
11:03 AM72 °FScattered clouds.1 mph78%30.05 "Hg2 mi
10:58 AM72 °FHaze.1 mph78%30.02 "Hg2 mi
9:58 AM68 °FFog.2 mph100%30.03 "Hg2 mi
8:58 AM66 °FFog.No wind100%30.03 "Hg2 mi
7:58 AM63 °FFog.No wind100%30.04 "Hg1 mi
4:55 AM61 °FFog.No wind100%30.06 "Hg1 mi
Weather by CustomWeather, © 2016

See weather overviewHow to use our weather pages